Location: Wapato
(46.4478°N, 120.4212°W)
Time: 23:18:24
(UTC+00:00)

Vanguard 1 Rocket - Pass Details

Date: 10 May 2026
Orbit: 656 x 4211 km, 34.3° (Epoch: 7 June)

Event Time Altitude Azimuth Distance (km) Brightness Sun altitude
Rises 05:01:40 0° 274° (W) 6,597 12.6 -14.6°
Reaches altitude 10° 05:05:40 10° 269° (W) 5,975 12.1 -15.1°
Maximum altitude 05:24:45 47° 204° (SSW) 4,831 10.8 -17.2°
Enters shadow 05:41:55 22° 149° (SSE) 6,326 11.0 -18.9°
